Location: *
(1.3500°S, 147.5000°W)
Time: 16:59:00
(UTC+00:00)

YAOGAN 1 - Pass Details

Date: 07 April 2020
Orbit: 618 x 620 km, 97.9° (Epoch: 26 May)

Event Time Altitude Azimuth Distance (km) Brightness Sun altitude
Rises 04:47:23 0° 166° (SSE) 2,893 5.8 -13.9°
Reaches altitude 10° 04:49:34 10° 164° (SSE) 1,985 4.9 -14.4°
Maximum altitude 04:53:53 76° 78° (ENE) 640 2.4 -15.5°
Drops below altitude 10° 04:58:10 10° 353° (N) 1,976 5.3 -16.6°
Sets 05:00:21 0° 351° (N) 2,879 6.2 -17.1°
